CW4477 Weather Reports


Display with metric or nautical units.
time (UTC)temp
F
wind
direction
speed
MPH
gust
MPH
rain 1hr
in
rain 24hr
in
rain mn
in
humidity
%
barometer
mb
20260504011927 66 225 2.0 9.0 0.00 0.06 0.06 40 1004.0
20260504011427 66 255 1.0 9.0 0.00 0.06 0.06 40 1003.9
20260504010921 67 285 2.0 9.0 0.00 0.06 0.06 40 1003.9
20260504010423 67 241 2.0 10.0 0.00 0.06 0.06 39 1004.0
20260504005921 67 195 4.0 10.0 0.00 0.06 0.06 39 1004.0
20260504005410 67 267 1.0 9.0 0.00 0.06 0.06 39 1004.0
20260504004910 67 262 0.0 9.0 0.00 0.06 0.06 38 1004.1
20260504004402 67 250 0.0 10.0 0.00 0.06 0.06 38 1004.1
20260504003901 67 267 4.0 10.0 0.00 0.06 0.06 38 1004.0
20260504003359 68 226 3.0 9.0 0.00 0.06 0.06 37 1004.0
20260504002857 68 319 3.0 10.0 0.00 0.06 0.06 37 1004.0
20260504002350 68 225 5.0 14.0 0.00 0.06 0.06 36 1003.9
20260504001850 68 293 0.0 14.0 0.00 0.06 0.06 36 1003.9
20260504001349 68 223 2.0 13.0 0.00 0.06 0.06 35 1004.0
20260504000852 68 258 5.0 10.0 0.00 0.06 0.06 35 1004.0
20260504000610 69 264 1.0 17.0 0.00 0.06 0.06 35 1003.9
20260503235849 69 215 2.0 17.0 0.00 0.06 0.06 35 1003.8
20260503235607 69 279 2.0 13.0 0.00 0.06 0.06 35 1003.8
20260503234847 69 300 0.0 15.0 0.00 0.06 0.06 34 1003.9
20260503234339 68 213 5.0 15.0 0.00 0.06 0.06 34 1003.9
20260503234103 68 272 3.0 15.0 0.00 0.06 0.06 34 1003.9
20260503233337 68 254 5.0 14.0 0.00 0.06 0.06 34 1003.9
20260503232839 68 243 4.0 17.0 0.00 0.06 0.06 34 1004.0
20260503232333 68 261 5.0 17.0 0.00 0.06 0.06 34 1004.0
20260503231825 68 251 2.0 14.0 0.00 0.06 0.06 33 1004.1
20260503231550 68 219 1.0 12.0 0.00 0.06 0.06 34 1004.1
20260503231040 68 275 1.0 15.0 0.00 0.06 0.06 34 1004.1
20260503230552 67 291 9.0 15.0 0.00 0.06 0.06 33 1004.3
20260503225818 68 243 5.0 14.0 0.00 0.06 0.06 33 1004.3
20260503225319 68 195 1.0 17.0 0.00 0.06 0.06 34 1004.3
20260503224820 67 126 9.0 17.0 0.00 0.06 0.06 33 1004.6
20260503224814 67 289 8.0 17.0 0.00 0.06 0.06 34 1004.4
20260503223811 68 219 5.0 16.0 0.00 0.06 0.06 33 1004.6
20260503223315 67 196 5.0 16.0 0.00 0.06 0.06 34 1004.5
20260503222811 67 250 8.0 14.0 0.00 0.06 0.06 33 1004.7
20260503222309 67 241 9.0 18.0 0.00 0.06 0.06 33 1004.9
20260503221808 67 244 8.0 16.0 0.00 0.08 0.06 33 1005.0
20260503221308 67 178 10.0 23.0 0.00 0.08 0.06 33 1005.1
20260503220808 67 244 4.0 23.0 0.00 0.08 0.06 33 1005.1
20260503220306 67 229 7.0 20.0 0.00 0.08 0.06 33 1005.2
20260503215807 67 261 9.0 23.0 0.00 0.08 0.06 32 1005.2
20260503215306 67 320 9.0 23.0 0.00 0.08 0.06 33 1005.2
20260503214804 67 277 12.0 23.0 0.00 0.08 0.06 32 1005.2
20260503214304 67 291 6.0 20.0 0.00 0.08 0.06 32 1005.2
20260503213746 66 233 8.0 20.0 0.00 0.08 0.06 33 1005.3
20260503213503 66 244 10.0 22.0 0.00 0.08 0.06 32 1005.4
20260503212744 65 217 7.0 22.0 0.00 0.08 0.06 32 1005.5
20260503212242 65 298 9.0 19.0 0.00 0.08 0.06 32 1005.5
20260503211742 65 288 8.0 19.0 0.00 0.08 0.06 33 1005.5
20260503211241 65 316 7.0 18.0 0.00 0.08 0.06 33 1005.7
20260503210742 65 244 6.0 18.0 0.00 0.08 0.06 34 1005.7
20260503210241 65 232 6.0 18.0 0.00 0.08 0.06 33 1005.8
20260503205744 65 216 6.0 18.0 0.00 0.08 0.06 32 1005.8
20260503205240 65 303 9.0 18.0 0.00 0.08 0.06 32 1006.0
20260503204738 65 188 7.0 19.0 0.00 0.08 0.06 32 1006.1
20260503204237 66 229 5.0 21.0 0.00 0.08 0.06 33 1006.2
20260503203953 65 222 6.0 24.0 0.00 0.08 0.06 33 1006.3
20260503203237 65 253 10.0 24.0 0.00 0.08 0.06 33 1006.5
20260503202736 65 201 6.0 23.0 0.00 0.08 0.06 35 1006.4
20260503202234 65 257 4.0 24.0 0.00 0.08 0.06 35 1006.5
20260503201734 64 212 9.0 24.0 0.02 0.08 0.06 34 1006.8
20260503201233 64 219 9.0 31.0 0.02 0.08 0.06 35 1006.9
20260503200733 64 230 10.0 31.0 0.02 0.08 0.06 35 1006.8
20260503200450 64 267 9.0 31.0 0.02 0.08 0.06 35 1007.0
20260503195732 63 198 11.0 25.0 0.02 0.08 0.06 40 1007.0
20260503195232 62 195 7.0 25.0 0.02 0.08 0.06 42 1007.0
20260503194733 62 248 6.0 25.0 0.02 0.08 0.06 43 1007.1
20260503194452 62 168 11.0 21.0 0.02 0.08 0.06 42 1007.1
20260503193951 61 284 5.0 21.0 0.02 0.08 0.06 44 1007.2
20260503193227 61 251 6.0 21.0 0.02 0.08 0.06 43 1007.4
20260503192728 60 195 8.0 21.0 0.02 0.08 0.06 43 1007.4
20260503192226 60 195 10.0 21.0 0.02 0.08 0.06 42 1007.5
20260503191727 60 240 7.0 23.0 0.00 0.06 0.04 43 1007.6
20260503191226 59 210 7.0 23.0 0.00 0.06 0.04 43 1007.8
20260503190724 58 261 11.0 21.0 0.00 0.06 0.04 43 1007.8
20260503190223 59 185 8.0 20.0 0.00 0.06 0.04 46 1007.9
20260503185724 59 132 6.0 19.0 0.00 0.06 0.04 45 1008.0
20260503185222 58 215 8.0 19.0 0.00 0.06 0.04 47 1008.0
20260503184945 58 227 11.0 21.0 0.00 0.06 0.04 48 1008.2
20260503184447 57 175 9.0 21.0 0.00 0.06 0.04 49 1008.2
20260503183722 56 213 9.0 22.0 0.00 0.06 0.04 50 1008.4
20260503183222 56 210 9.0 22.0 0.00 0.06 0.04 51 1008.4
20260503182720 56 208 11.0 17.0 0.00 0.06 0.04 51 1008.5
20260503182219 56 175 8.0 21.0 0.00 0.06 0.04 52 1008.6
20260503181717 55 129 10.0 21.0 0.00 0.06 0.04 52 1008.8
20260503181218 56 234 11.0 19.0 0.00 0.06 0.04 52 1009.2
20260503180717 56 225 6.0 18.0 0.00 0.06 0.04 52 1009.6
20260503180215 56 149 6.0 21.0 0.00 0.06 0.04 53 1009.8
20260503175715 56 271 6.0 23.0 0.00 0.06 0.04 53 1009.9
20260503175214 56 295 6.0 23.0 0.00 0.06 0.04 54 1010.1
20260503174714 55 253 11.0 23.0 0.00 0.06 0.04 53 1010.4
20260503174214 55 180 8.0 20.0 0.00 0.06 0.04 55 1010.4
20260503173712 55 244 7.0 18.0 0.00 0.06 0.04 56 1010.4
20260503173431 55 187 9.0 16.0 0.00 0.06 0.04 58 1010.6
20260503172711 55 257 6.0 18.0 0.00 0.06 0.04 58 1010.9
20260503172213 55 175 4.0 18.0 0.00 0.06 0.04 59 1011.1
20260503171712 54 191 7.0 18.0 0.00 0.06 0.04 60 1011.1
20260503171211 53 226 7.0 17.0 0.00 0.06 0.04 62 1011.2
20260503170707 53 244 6.0 17.0 0.00 0.06 0.04 63 1011.2
20260503170207 52 202 5.0 17.0 0.00 0.06 0.04 64 1011.3
20260503150641 55 271 8.0 16.0 0.00 0.06 0.04 49 1011.9
20260503150134 55 241 5.0 17.0 0.00 0.06 0.04 49 1011.9
20260503140121 54 265 9.0 17.0 0.00 0.06 0.04 47 1012.8
20260503131107 53 274 2.0 17.0 0.02 0.06 0.04 48 1013.0
20260503130828 53 246 7.0 17.0 0.02 0.06 0.04 47 1013.0
20260503130107 53 233 5.0 15.0 0.02 0.06 0.04 47 1013.1
20260503110437 49 277 5.0 13.0 0.00 0.04 0.02 51 1012.8
20260503110153 49 258 6.0 13.0 0.00 0.04 0.02 51 1012.7
20260503090324 48 240 1.0 7.0 0.00 0.04 0.02 49 1013.2
20260503081529 48 258 1.0 7.0 0.00 0.06 0.02 48 1013.3
20260503080807 48 265 0.0 7.0 0.00 0.06 0.02 48 1013.4
20260503080307 48 289 3.0 7.0 0.00 0.06 0.02 48 1013.3
20260503072739 49 243 1.0 7.0 0.00 0.06 0.02 47 1013.5
20260503072239 49 220 1.0 7.0 0.00 0.06 0.02 47 1013.5
20260503072003 49 232 1.0 5.0 0.00 0.06 0.02 47 1013.5
20260503071231 49 251 0.0 5.0 0.00 0.06 0.02 47 1013.5
20260503070726 49 254 1.0 9.0 0.00 0.06 0.02 47 1013.5
20260503070211 49 303 0.0 9.0 0.00 0.06 0.02 47 1013.6
20260503060331 49 223 1.0 7.0 0.02 0.06 0.02 46 1014.0
20260503060213 49 247 0.0 7.0 0.02 0.06 0.02 46 1014.0
20260503055110 49 217 2.0 9.0 0.02 0.06 0.02 46 1014.1
20260503054613 49 208 4.0 9.0 0.02 0.06 0.02 46 1014.1
20260503054106 49 122 4.0 9.0 0.02 0.06 0.02 46 1014.3
20260503053608 50 247 2.0 9.0 0.02 0.06 0.02 46 1014.3
20260503053042 50 237 0.0 9.0 0.02 0.06 0.02 46 1014.3
20260503052543 50 219 1.0 8.0 0.02 0.06 0.02 46 1014.4
20260503052040 50 243 0.0 8.0 0.02 0.06 0.02 46 1014.5
20260503051541 50 279 1.0 8.0 0.00 0.04 0.00 46 1014.5
20260503051300 50 227 3.0 8.0 0.00 0.04 0.00 46 1014.5
20260503050523 50 236 0.0 6.0 0.00 0.04 0.00 46 1014.5
20260503050028 50 261 0.0 8.0 0.00 0.04 0.00 46 1014.5
20260503045512 50 220 2.0 8.0 0.00 0.04 0.04 45 1014.6
20260503045011 50 260 0.0 6.0 0.00 0.04 0.04 46 1014.6
20260503044510 50 225 2.0 5.0 0.00 0.04 0.04 45 1014.6
20260503044241 50 220 1.0 6.0 0.00 0.04 0.04 46 1014.6
20260503043510 50 243 0.0 9.0 0.00 0.04 0.04 46 1014.6
20260503042958 50 222 0.0 9.0 0.00 0.04 0.04 45 1014.6
20260503042700 50 217 0.0 7.0 0.00 0.04 0.04 46 1014.6
20260503041938 50 282 0.0 4.0 0.00 0.04 0.04 46 1014.6
20260503041429 50 258 2.0 4.0 0.00 0.04 0.04 46 1014.6
20260503040927 50 205 0.0 0.0 0.00 0.04 0.04 47 1014.6
20260503040418 50 205 0.0 0.0 0.00 0.04 0.04 46 1014.7
20260503035916 50 205 0.0 0.0 0.00 0.04 0.04 46 1014.7
20260503035411 51 205 0.0 0.0 0.00 0.04 0.04 46 1014.7
20260503035339 50 205 0.0 0.0 0.00 0.04 0.04 46 1014.7
20260503034829 51 205 0.0 3.0 0.00 0.04 0.04 46 1014.7
20260503033829 51 205 0.0 3.0 0.00 0.04 0.04 46 1014.7
20260503033541 51 248 0.0 4.0 0.00 0.04 0.04 46 1014.7
20260503033037 51 248 0.0 4.0 0.00 0.04 0.04 46 1014.8
20260503032300 51 210 1.0 2.0 0.00 0.04 0.04 46 1014.8
20260503031757 51 206 0.0 2.0 0.00 0.04 0.04 46 1014.9
20260503031524 51 206 0.0 2.0 0.00 0.04 0.04 45 1014.9
20260503030752 51 206 0.0 4.0 0.00 0.04 0.04 44 1014.9
20260503030247 51 201 0.0 4.0 0.00 0.04 0.04 45 1014.9
20260503025740 51 201 1.0 4.0 0.00 0.04 0.04 44 1014.9
20260503025734 51 258 0.0 3.0 0.00 0.04 0.04 46 1015.0
20260503024731 51 199 2.0 3.0 0.00 0.04 0.04 46 1015.0
20260503024233 51 255 0.0 3.0 0.00 0.04 0.04 48 1014.9
20260503023942 51 163 2.0 3.0 0.00 0.04 0.04 50 1014.9
20260503023221 50 202 0.0 0.0 0.00 0.04 0.04 52 1015.0
20260503022719 50 202 0.0 2.0 0.00 0.04 0.04 54 1015.0
20260503022216 50 202 0.0 2.0 0.00 0.04 0.04 57 1015.0
20260503022155 50 170 2.0 2.0 0.00 0.04 0.04 59 1014.9
20260503021208 50 161 1.0 2.0 0.00 0.04 0.04 60 1014.9
20260503020708 50 149 0.0 1.0 0.00 0.04 0.04 59 1014.9
20260503020431 50 149 0.0 1.0 0.00 0.04 0.04 60 1014.8
20260503015703 50 167 0.0 1.0 0.00 0.04 0.04 60 1014.8
20260503015157 50 167 0.0 1.0 0.00 0.04 0.04 60 1014.8
20260503014641 50 175 1.0 1.0 0.00 0.04 0.04 61 1014.9
20260503014139 51 156 0.0 2.0 0.00 0.04 0.04 60 1014.8
20260503013615 51 156 0.0 3.0 0.00 0.04 0.04 60 1014.8
20260503013317 51 161 2.0 3.0 0.00 0.04 0.04 60 1014.7
20260503012540 51 126 0.0 3.0 0.00 0.04 0.04 60 1014.7